Simultaneous Nadir Overpasses (SNOs) Predictions

Prediction of SNOs between NOAA-19 and METOP-C Satellite Orbit:

Table of predicted SNOs for the next 14.0 days since TLE Epoch: 1/17/2020
Index Date (NOAA-19) Time (NOAA-19) Lat,Lon (NOAA-19) SZA (NOAA-19 ) Date (METOP-C) Time (METOP-C) Lat,Lon (METOP-C) SZA (METOP-C ) Distance(km) Time Diff (sec)
1 01/25/2020 10:45:49 79.74, 38.58 99.15 01/25/2020 10:46:46 79.73, 38.43 99.14 3.32 57
2 01/25/2020 11:36:46 -79.74,-154.14 80.87 01/25/2020 11:37:28 -79.73,-154.28 80.88 3.08 42
3 01/25/2020 12:27:50 79.75, 12.99 99.13 01/25/2020 12:28:07 79.72, 13.02 99.11 3.14 17
4 01/25/2020 13:18:47 -79.75,-179.73 80.88 01/25/2020 13:18:49 -79.72,-179.69 80.91 3.27 2
5 01/25/2020 14:09:50 79.73, -12.31 99.11 01/25/2020 14:09:28 79.71, -12.40 99.08 2.59 22
6 01/25/2020 15:00:47 -79.73, 154.98 80.91 01/25/2020 15:00:10 -79.71, 154.91 80.94 2.49 37
7 01/25/2020 15:51:50 79.71, -37.61 99.08 01/25/2020 15:50:48 79.74, -37.52 99.10 3.13 62




NCC Satellite Simultaneous Nadir Overpasses (SNOs) Prediction Service
